This is the latest recevied weather packets stored in our database for station/object KA9CBS. If no packets are shown the sender has not sent any weather packets the latest 10 day(s).
| Time | Temp. | Humidity | Pressure | Rain* | Wind** | Luminosity | Snow |
|---|---|---|---|---|---|---|---|
| 1778092229 | 13.89° C | 67% | 1017.6 hPa | 0 mm | - | 575 W/m² | - |
| 1778091926 | 13.89° C | 70% | 1017.2 hPa | 0 mm | - | 825 W/m² | - |
| 1778091623 | 14.44° C | 68% | 1017.4 hPa | 0 mm | - | 449 W/m² | - |
| 1778091321 | 13.89° C | 73% | 1017.2 hPa | 0 mm | - | 386 W/m² | - |
| 1778091018 | 14.44° C | 70% | 1017.5 hPa | 0 mm | - | 480 W/m² | - |
| 1778090714 | 13.89° C | 71% | 1017.4 hPa | 0 mm | - | 423 W/m² | - |
| 1778090411 | 13.89° C | 71% | 1017.5 hPa | 0 mm | - | 359 W/m² | - |
| 1778090108 | 13.89° C | 75% | 1017.3 hPa | 0 mm | - | 524 W/m² | - |
| 1778089804 | 13.33° C | 70% | 1017.3 hPa | 0 mm | - | 432 W/m² | - |
| 1778089503 | 13.89° C | 74% | 1017.4 hPa | 0 mm | - | 398 W/m² | - |
| 1778089198 | 13.89° C | 75% | 1017.5 hPa | 0 mm | - | 492 W/m² | - |
| 1778088896 | 12.78° C | 74% | 1017.8 hPa | 0 mm | - | 384 W/m² | - |
| 1778088592 | 12.78° C | 75% | 1017.4 hPa | 0 mm | - | 386 W/m² | - |
| 1778088290 | 12.78° C | 75% | 1017.4 hPa | 0 mm | - | 347 W/m² | - |
| 1778087986 | 12.78° C | 77% | 1017.7 hPa | 0 mm | - | 369 W/m² | - |
| 1778087684 | 12.78° C | 73% | 1017.8 hPa | 0 mm | - | 321 W/m² | - |
| 1778087382 | 12.78° C | 76% | 1017.9 hPa | 0 mm | - | 331 W/m² | - |
| 1778087078 | 12.78° C | 75% | 1017.5 hPa | 0 mm | - | 326 W/m² | - |
| 1778086777 | 12.78° C | 77% | 1017.8 hPa | 0 mm | - | 392 W/m² | - |
| 1778086475 | 12.78° C | 79% | 1017.6 hPa | 0 mm | - | 351 W/m² | - |
| 1778086171 | 12.22° C | 79% | 1017.8 hPa | 0 mm | - | 338 W/m² | - |
| 1778085868 | 12.78° C | 78% | 1017.6 hPa | 0 mm | - | 262 W/m² | - |
| 1778085566 | 12.22° C | 80% | 1017.6 hPa | 0 mm | - | 308 W/m² | - |
| 1778085265 | 12.78° C | 81% | 1017.8 hPa | 0 mm | - | 304 W/m² | - |
| 1778084955 | 12.22° C | 83% | 1017.6 hPa | 0 mm | - | 333 W/m² | - |
* Rain latest hour (hover to see other rain measurements)
** Current wind speed in m/s (hover to see current wind gust speed)